Location: Silverdale
(47.6506°N, 122.6941°W)
Time: 19:42:10
(UTC+00:00)

Transit 4A - Visible Passes

Search period start: 07 December 2023 00:00
Search period end: 17 December 2023 00:00
Orbit: 864 x 979 km, 66.8° (Epoch: 07 December)

Date Brightness Start Highest point End Pass type
(mag) Time Alt. Az. Time Alt. Az. Time Alt. Az.
07 Dec 9.5 02:50:44 10° SSE 02:52:56 19° SSE 02:52:56 19° SSE visible
07 Dec 10.3 04:35:43 10° SW 04:36:30 14° SW 04:36:30 14° SW visible
07 Dec 9.2 11:57:59 33° ESE 11:57:59 33° ESE 12:01:15 10° SE visible
07 Dec 8.7 13:41:33 29° WSW 13:41:33 29° WSW 13:46:19 10° SSW visible
08 Dec 9.0 02:59:05 10° S 03:02:48 31° SSE 03:02:48 31° SSE visible
08 Dec 10.3 04:45:09 10° WSW 04:46:22 16° WSW 04:46:22 16° WSW visible
08 Dec 9.3 12:07:49 29° SE 12:07:49 29° SE 12:10:30 10° SE visible
08 Dec 9.3 13:51:23 19° WSW 13:51:23 19° WSW 13:54:18 10° SSW visible
09 Dec 8.4 03:07:45 10° SSW 03:12:36 48° SSE 03:12:36 48° SSE visible
09 Dec 10.3 04:54:46 10° WSW 04:56:09 16° WSW 04:56:09 16° WSW visible
09 Dec 9.6 12:17:41 21° SSE 12:17:41 21° SSE 12:19:33 10° SSE visible
09 Dec 9.8 14:01:15 11° SW 14:01:15 11° SW 14:01:33 10° SW visible
10 Dec 9.5 01:34:04 10° SE 01:37:37 16° ESE 01:38:46 15° E visible
10 Dec 8.0 03:16:38 10° SSW 03:22:19 70° S 03:22:19 70° S visible
10 Dec 10.4 05:04:33 10° W 05:05:52 15° W 05:05:52 15° W visible
10 Dec 10.0 12:27:37 14° S 12:27:37 14° S 12:28:23 10° S visible
11 Dec 9.1 01:41:37 10° SSE 01:46:24 23° ESE 01:48:24 20° E visible
11 Dec 8.0 03:25:45 10° SW 03:31:57 77° WNW 03:31:57 77° WNW visible
11 Dec 10.6 05:14:30 10° W 05:15:29 14° WNW 05:15:29 14° WNW visible
12 Dec 8.7 01:49:43 10° S 01:55:16 32° ESE 01:57:57 23° ENE visible
12 Dec 8.3 03:35:03 10° SW 03:41:21 58° NW 03:41:29 58° NW visible
12 Dec 10.7 05:24:34 10° WNW 05:25:02 11° WNW 05:25:02 11° WNW visible
13 Dec 8.3 01:58:10 10° S 02:04:12 45° ESE 02:07:25 26° ENE visible
13 Dec 8.8 03:44:33 10° WSW 03:50:38 44° NW 03:50:57 44° NW visible
14 Dec 8.0 02:06:54 10° SSW 02:13:12 63° ESE 02:16:48 26° NE visible
14 Dec 9.2 03:54:13 10° WSW 03:59:59 34° NW 04:00:20 34° NW visible
15 Dec 7.9 02:15:53 10° SSW 02:22:17 86° ESE 02:26:06 26° NE visible
15 Dec 9.5 04:04:04 10° W 04:09:25 27° NW 04:09:38 27° NNW visible
16 Dec 8.2 02:25:03 10° SW 02:31:26 71° NW 02:35:21 24° NNE visible
16 Dec 9.8 04:14:03 10° W 04:18:52 22° NNW 04:18:52 22° NNW visible
